Search for airport 
image banner adimage banner ad
image banner ad

SSEP - São Sepé Airport

Located in São Sepé, Brazil

ICAO - SSEP, IATA -

Data provided by Airmate  

General information

Coordinates: S30°10'56" W53°34'46"
Elevation is 501 feet MSL.
Magnetic variation is -15° East
View others Airports in Rio Grande do Sul

Operational data

Open for public use
Current time UTC:
Current local time:
Weather at : SBSM - Santa Maria Airport ( 53 km )
METAR: SBSM 211700Z 10016KT 9999 BKN040 28/21 Q1017
TAF: TAF SBSM 210900Z 2112/2124 10010KT 9999 SCT015 TN22/2112Z TX29/2118Z BECMG 2114/21156 10014KT BKN027 TEMPO 2118/2121 8000 SHRA BKN030 FEW045TCU BECMG 2121/2123 09010KT FEW035 RMK PEJ
View NOTAMs / SUP AIP / TFR affecting this airport [VIEW]
Communications frequencies: [VIEW]

Runways:

Airport contact information

Address: São Sepé Brazil

Satellite view of SSEP